#timestamp,LO_Frequency,Hit,StdDev 
1653116415.7,286047021.0,N
1653116435.6,286047023.8,Y
1653116455.4,286047013.0,P
1653116475.2,286047014.2,P
1653116495.1,286047016.4,P
1653116496.0,286047014.4,Y
1653116515.8,286047000.1,P
1653116535.7,286047004.7,N
1653116555.5,286047005.6,N
1653116575.3,286047003.1,N
1653116595.2,286047004.2,N
1653116615.0,286047003.7,N
1653116615.9,286047003.0,N
1653116635.8,286047005.8,N
1653116655.6,286047008.6,N
1653116675.4,286047010.1,N
1653116695.3,286047009.7,N
1653116715.1,286047012.3,Y
1653116735.9,286047006.2,P
1653116755.7,286047007.9,P
1653116775.5,286047015.2,P
1653116795.4,286047022.0,Y
1653116815.2,286047009.1,P
1653116835.0,286047006.6,P
1653116835.9,286047004.7,P
1653116855.8,286047009.2,Y
1653116875.6,286046996.6,P
1653116895.5,286046998.1,N
1653116915.3,286046998.9,N
1653116935.1,286046998.3,N
1653116955.9,286046995.1,N
1653116975.7,286046993.5,N
1653116995.6,286046995.5,N
1653117015.4,286046998.7,N
1653117035.2,286047001.7,N
1653117055.1,286047002.9,N
1653117056.0,286047005.3,N
1653117075.8,286047004.8,N
1653117095.6,286047005.2,N
1653117115.5,286047008.4,N
1653117135.3,286047009.6,N
1653117155.2,286047006.6,N
1653117175.9,286047005.5,N
1653117195.7,286047007.2,N
1653117215.6,286047008.8,N
1653117235.4,286047006.5,N
1653117255.2,286047008.9,N
1653117275.1,286047008.8,N
1653117276.0,286047008.3,N
1653117295.8,286047008.9,N
1653117315.7,286047005.6,N
1653117335.5,286046999.9,N
1653117355.3,286046996.7,N
1653117375.2,286046996.3,N
1653117395.0,286046993.0,N
1653117395.9,286046990.3,N
1653117415.8,286046991.6,N
1653117435.6,286046986.7,N
1653117455.4,286046987.4,N
1653117475.3,286046989.5,N
1653117495.1,286046991.6,N
1653117515.8,286046989.4,N
1653117535.7,286046988.8,N
1653117555.5,286046987.7,N
1653117575.4,286046989.0,N
1653117595.2,286046982.5,N
1653117615.0,286046985.0,N
1653117615.9,286046980.8,N
1653117635.8,286046978.5,N
1653117655.6,286046972.5,N
1653117675.5,286046970.0,N
1653117695.3,286046970.5,N
1653117715.1,286046970.6,N
1653117735.9,286046974.8,N
1653117755.7,286046969.6,N
1653117775.5,286046968.0,N
1653117795.4,286046975.5,N
1653117815.2,286046971.9,N
1653117835.1,286046970.4,N
1653117836.0,286046969.0,N
1653117855.8,286046965.4,Y
1653117875.6,286046984.2,P
1653117895.5,286046981.1,P
1653117915.3,286046982.3,P
1653117935.2,286046980.5,Y
1653117955.0,286047000.2,P
1653117955.9,286047001.9,N
1653117975.7,286047001.9,N
1653117995.6,286047001.5,N
1653118015.4,286046999.0,N
1653118035.3,286046993.7,N
1653118055.1,286046994.8,N
1653118056.0,286046990.5,N
1653118075.8,286046992.8,N
1653118095.7,286046989.7,N
1653118115.5,286046990.3,N
1653118135.4,286046989.9,N
1653118155.2,286046987.6,N
1653118175.0,286046984.5,N
1653118175.9,286046980.5,Y
1653118195.8,286046985.1,P
1653118215.6,286046983.4,P
1653118235.5,286046983.6,P
1653118255.3,286046979.8,Y
1653118275.1,286046992.6,P
1653118295.9,286046992.6,N
1653118315.7,286046995.8,N
1653118335.5,286046999.8,N
1653118355.4,286047008.4,N
1653118375.2,286047019.7,N
1653118395.1,286047023.4,N
1653118396.0,286047024.6,N
1653118415.8,286047025.9,N
1653118435.6,286047024.1,N
1653118455.5,286047025.0,N
1653118475.3,286047026.4,N
1653118495.2,286047023.8,N
1653118515.9,286047026.0,N
1653118535.7,286047024.3,N
1653118555.6,286047025.2,N
1653118575.4,286047032.2,N
1653118595.2,286047034.7,N
1653118615.1,286047033.2,N
1653118616.0,286047029.3,N
1653118635.8,286047026.7,N
1653118655.7,286047022.7,N
1653118675.5,286047022.9,N
1653118695.3,286047025.5,N
1653118715.2,286047025.1,N
1653118735.0,286047024.8,N
1653118735.9,286047024.5,N
1653118755.8,286047026.2,N
1653118775.6,286047026.9,N
1653118795.4,286047026.3,N
1653118815.3,286047024.0,N
1653118835.1,286047022.1,N
1653118855.8,286047016.2,N
1653118875.7,286047012.9,N
1653118895.5,286047014.8,N
1653118915.4,286047015.1,Y
1653118935.2,286046987.9,P
1653118955.0,286046988.1,N
1653118955.9,286046985.4,N
1653118975.8,286046989.7,N
1653118995.6,286046987.4,N
1653119015.4,286046988.9,N
1653119035.3,286046987.3,N
1653119055.1,286046986.2,N
1653119075.9,286046983.7,N
1653119095.7,286046984.9,N
1653119115.5,286046983.7,N
1653119135.4,286046979.4,N
1653119155.2,286046980.7,N
1653119175.0,286046981.2,N
1653119175.9,286046979.7,N
1653119195.8,286046979.6,N
1653119215.6,286046981.9,N
1653119235.5,286046984.6,N
1653119255.3,286046987.2,N
1653119275.1,286046985.3,N
1653119295.9,286046989.3,N
1653119315.7,286046993.2,N
1653119335.5,286046994.8,N
1653119355.4,286046997.1,N
1653119375.2,286046998.6,N
1653119395.1,286047001.2,N
1653119396.0,286046998.4,N
1653119415.8,286046996.0,N
1653119435.6,286046993.4,N
1653119455.5,286046995.7,N
1653119475.3,286046992.3,N
1653119495.1,286046991.2,N
1653119515.9,286046993.9,N
1653119535.7,286046992.0,N
1653119555.6,286046987.0,N
1653119575.4,286046984.2,N
1653119595.2,286046981.0,Y
1653119615.1,286046992.4,P
1653119616.0,286046990.8,P
1653119635.8,286046995.9,N
1653119655.6,286046992.8,N
1653119675.5,286046989.1,Y
1653119695.3,286046995.3,P
1653119715.2,286046996.4,N
1653119735.9,286046994.4,P
1653119755.7,286046992.3,Y
1653119775.6,286046996.6,P
1653119795.4,286046996.1,P
1653119815.3,286046993.7,P
1653119835.1,286046993.7,Y
1653119836.0,286046994.5,P
1653119855.8,286046998.8,P
1653119875.7,286046998.7,N
1653119895.5,286047001.5,N
1653119915.3,286047003.0,N
1653119935.2,286047004.9,N
1653119955.0,286047008.1,N
1653119955.9,286047012.0,N
1653119975.8,286047010.1,N
1653119995.6,286047009.7,N
